Tracking 27086 objects as of 22-Mar-2023
HD Live streaming from Space Station
objects crossing your sky now

COSMOS 1275 DEB

Track COSMOS 1275 DEB now!
10-day predictions


NORAD ID: 17637
Int'l Code: 1981-053LK
Perigee: 933.8 km
Apogee: 1,136.0 km
Inclination: 83.1 °
Period: 105.7 minutes
Semi major axis: 7405 km
RCS: 0.0105 m2 (small)
Launch date: June 4, 1981
Source: Commonwealth of Independent States (former USSR) (CIS)
Launch site: PLESETSK MISSILE AND SPACE COMPLEX (PKMTR)

Note: This is SATELLITE DEBRIS
Your satellite tracking list
Your tracking list is empty




NASA's NSSDC Master Catalog

Two Line Element Set (TLE):
1 17637U 81053LG  23079.03423455  .00001458  00000-0  17581-2 0  9990
2 17637  83.0669 291.7413 0136524 260.5731 255.6167 13.62185780875058
Source of the keplerian elements: AFSPC